Tracking 29591 objects as of 19-Sep-2024
HD Live streaming from Space Station
objects crossing your sky now

SL-12 R/B(2)

Track SL-12 R/B(2) now!


NORAD ID: 14086
Int'l Code: 1983-016F
Perigee: 35,500.3 km
Apogee: 35,625.4 km
Inclination: 8.0 °
Period: 1,424.3 minutes
Semi major axis: 41933 km
RCS: 1.9413 m2 (large)
Launch date: March 12, 1983
Source: Commonwealth of Independent States (former USSR) (CIS)
Launch site: TYURATAM MISSILE AND SPACE COMPLEX (TTMTR)

Note: This is a ROCKET BODY
Your satellite tracking list
Your tracking list is empty




NASA's NSSDC Master Catalog

Two Line Element Set (TLE):
1 14086U 83016F   24263.54744838  .00000000  00000-0  00000-0 0  9997
2 14086   8.0438 302.0462 0014918 303.3378 168.1478  1.01101144116546
Source of the keplerian elements: AFSPC